Weather in Plodopitomnik

Russia / Kemerovo Oblast     53°59′17″N   86°53′12″E
temp.,
°C
wind,
m/s
gust,
m/s
humid.,
%
clouds,
%
prec.,
mm/h
press.,
hPa
HPBL,
m
25 february, thu
thu2501:000sw71483100 3.6 10101107
04:00−12wsw3682100 0.0 1015114
07:00−14s2384100 0.0 101836
10:00−13ssw3592100 0.5 1019549
13:00−12wsw71179100 0.8 10201527
16:00−14wsw61375100 0.1 10211430
19:00−17sw41090100 0.1 1025673
22:00−18s41097100 0.2 1027642
26 february, fri
fri2601:00−19s51389100 0.3 1025452
04:00−19sw41394100 0.3 1025831
07:00−21sw71285100 0.4 1028983
10:00−22sw71386100 0.1 10321395
13:00−21wsw81383100 0.1 10341522
16:00−20sw81282100 0.1 10351516
19:00−22sw41188100 0.1 1036849
22:00−24sw3891100 0.0 1039232
27 february, sat
sat2701:00−24s2496100 0.1 104099
04:00−24s3697100 0.1 1040209
07:00−24s3896100 0.1 1040236
10:00−22ssw5890100 0.0 1040671
13:00−19sw5786100 0.1 1039858
16:00−18sw5784100 0.1 1039907
19:00−20ssw3591100 0.1 1039100
22:00−22s339499 0.0 103954
28 february, sun
sun2801:00−25s229189 0.0 103920
04:00−25se229647 0.0 103820
07:00−23se239674 0.0 103825
10:00−20sse3589100 0.0 1036149
13:00−14sse468498 0.0 1032359
16:00−9s4775100 0.0 1029803
19:00−10sse3886100 0.0 1026205
22:00−10se41094100 0.2 1023331
1 march, mon
mon101:00−8sse51195100 1.0 1020469
04:00−7s3996100 1.1 1018504
07:00−7s4995100 1.4 1017378
10:00−6ssw51190100 0.2 1015855
13:00−3sw71290100 0.4 10141177
16:00−3sw71487100 0.5 10121256
19:00−4sw61390100 0.6 1012861
22:00−5ssw51492100 0.1 1011698